Regional Weather Roundup
Issued by NWS

Home | Current Version | Previous Version | Graphics & Text | Print | Product List | Glossary On
Versions: 1 2 3 4 5 6 7 8 9 10 11 12 13 14 15 16 17 18 19 20 21 22 23 24 25 26 27 28 29 30 31 32 33 34 35 36 37 38 39 40 41 42 43 44 45 46 47 48 49 50
000
ASUS43 KIND 222109
RWRIN

WEATHER ROUNDUP FOR INDIANA
NATIONAL WEATHER SERVICE INDIANAPOLIS IN
500 PM EDT TUE APR 22 2014

NOTE: "FAIR" INDICATES FEW OR NO CLOUDS BELOW 12,000 FEET WITH NO
SIGNIFICANT WEATHER AND/OR OBSTRUCTIONS TO VISIBILITY.

* - STATION DOES NOT REPORT WEATHER SUCH AS PRECIPITATION OR FOG.

+ - STATION NOT QUALITY CONTROLLED BY THE NATIONAL WEATHER SERVICE.
    USE DATA WITH CAUTION...ESPECIALLY DEWPOINT AND RELATIVE
    HUMIDITY OBSERVATIONS.

INZ001>003-010>013-019-020-222200-
NORTHWEST INDIANA

CITY           SKY/WX    TMP DP  RH WIND       PRES   REMARKS
GARY /AIRPORT/ MOSUNNY   48  32  53 NE12      29.98S
LA PORTE +     SUNNY     49  31  51 N13G18    29.96S
MICHIGAN CITY+ SUNNY     45  30  57 N13       29.98S
MONTICELLO +   SUNNY     55  32  41 NW15      29.95S
RENSSELAER +   SUNNY     55  32  41 NW3       29.94F
VALPARAISO     SUNNY     51  31  46 N12       29.96S

$$

LMZ046-743>745-222200-
SOUTHERN LAKE MICHIGAN

STATION/POSITION TIME  TEMP WIND        PRES
                       AIR  DIR/SP/G
                 (UTC) (F)  (DEG/KT/KT) (MB)
MICHIGAN CITY    2100   40   20/ 16/ 19   N/A

$$

INZ004-005-014>016-021>024-222200-
NORTH CENTRAL INDIANA

CITY           SKY/WX    TMP DP  RH WIND       PRES   REMARKS
ELKHART        MOSUNNY   48  28  46 N14G23    29.94S
GOSHEN         MOSUNNY   51  33  50 NW21G31   29.93R
LOGANSPORT +   SUNNY     54  28  37 N17G23    29.95R
PERU/GRISSOM   SUNNY     54  33  44 NW21G28   29.93R
ROCHESTER +    SUNNY     54  32  43 N18       29.95R
SOUTH BEND     SUNNY     50  31  48 N20G29    29.96S
WARSAW +       MOSUNNY   50  32  50 NW18G30   29.93R

$$

INZ006>009-017-018-025>027-222200-
NORTHEAST INDIANA

CITY           SKY/WX    TMP DP  RH WIND       PRES   REMARKS
ANGOLA *+      PTSUNNY   52  34  50 N18       29.86S
AUBURN +       SUNNY     54  32  43 NW20G31   29.88R
FORT WAYNE     MOSUNNY   54  32  43 NW18G29   29.88R

$$

INZ028-029-035-036-043>045-051>053-222200-
WEST CENTRAL INDIANA

CITY           SKY/WX    TMP DP  RH WIND       PRES   REMARKS
GREENCASTLE +  SUNNY     61  36  39 NW9G22    29.91F
LAFAYETTE      SUNNY     58  35  42 N13       29.94S
TERRE HAUTE    SUNNY     64  35  34 N16G26    29.93S

$$

INZ030>032-037>040-046>048-054>057-064-065-222200-
CENTRAL INDIANA

CITY           SKY/WX    TMP DP  RH WIND       PRES   REMARKS
CP ATTERBURY + SUNNY     63  34  34 NW17G23   29.90S
GREENWOOD *+   SUNNY     61  36  39 NW15G21   29.91
INDIANAPOLIS   MOSUNNY   59  36  42 N17G28    29.91S
-EAGLE CREEK   SUNNY     59  35  40 NW18G25   29.91S
KOKOMO *+      SUNNY     55  32  41 NW22G29   29.93R
MARION +       SUNNY     55  28  36 NW14G25   29.92R
MT COMFORT *+  SUNNY     59  36  41 NW18G25   29.91S
SHELBYVILLE    SUNNY     63  36  36 NW18G25   29.89S
ZIONSVILLE +   SUNNY     57  32  37 NW18G24   29.93S

$$

INZ033-034-041-042-049-050-058-059-222200-
EAST CENTRAL INDIANA

CITY           SKY/WX    TMP DP  RH WIND       PRES   REMARKS
MUNCIE         SUNNY     56  32  40 NW20G32   29.89R

$$

INZ060-061-067>069-081>083-085>088-222200-
SOUTHWEST INDIANA

CITY           SKY/WX    TMP DP  RH WIND       PRES   REMARKS
EVANSVILLE     SUNNY     69  43  38 N16       29.92S
HUNTINGBURG *+ SUNNY     66  43  42 N15G23    29.91S
WASHINGTON +   SUNNY     67  39  35 NW13G22   29.90F

$$

INZ062-063-066-070>080-084-089>092-222200-
SOUTH CENTRAL AND SOUTHEAST INDIANA

CITY           SKY/WX    TMP DP  RH WIND       PRES   REMARKS
BLOOMINGTON    SUNNY     66  32  28 VRB7G17   29.89S

$$




USA.gov is the U.S. government's official web portal to all federal, state and local government web resources and services.